Location: Vancouver
(49.2500°N, 123.1330°W)
Time: 20:56:38
(UTC-08:00)

SO-67 - Visible Passes

Search period start: 09 December 2016 00:00
Search period end: 19 December 2016 00:00
Orbit: 410 x 416 km, 97.1° (Epoch: 09 December)

Date Brightness Start Highest point End Pass type
(mag) Time Alt. Az. Time Alt. Az. Time Alt. Az.
09 Dec ? 06:42:24 10° NNE 06:45:18 30° E 06:48:09 10° SSE visible
09 Dec ? 17:13:06 10° ESE 17:15:16 17° ENE 17:17:27 10° NNE visible
09 Dec ? 18:44:15 10° SSW 18:47:07 31° W 18:50:00 10° NNW visible
10 Dec ? 17:57:43 10° SSE 18:00:51 60° ENE 18:03:59 10° N visible
11 Dec ? 06:42:00 10° NNE 06:44:53 30° E 06:47:44 10° SSE visible
11 Dec ? 17:12:42 10° ESE 17:14:51 17° ENE 17:17:00 10° NNE visible
11 Dec ? 18:43:49 10° SSW 18:46:41 31° W 18:49:35 10° NNW visible
12 Dec ? 17:57:16 10° SSE 18:00:24 59° ENE 18:03:32 10° N visible
13 Dec ? 06:41:33 10° NNE 06:44:25 30° E 06:47:16 10° SSE visible
13 Dec ? 17:12:15 10° ESE 17:14:23 17° ENE 17:16:31 10° NNE visible
13 Dec ? 18:43:19 10° SSW 18:46:12 32° W 18:49:07 10° NNW visible
14 Dec ? 17:56:47 10° SSE 17:59:54 58° ENE 18:03:02 10° N visible
15 Dec ? 06:41:02 10° NNE 06:43:54 29° E 06:46:44 10° SSE visible
15 Dec ? 17:11:45 10° ESE 17:13:51 17° ENE 17:15:58 10° NNE visible
15 Dec ? 18:42:47 10° SSW 18:45:41 32° W 18:48:36 10° NNW visible
16 Dec ? 17:56:14 10° SSE 17:59:21 57° ENE 18:02:29 10° N visible
17 Dec ? 06:40:30 10° NNE 06:43:21 29° E 06:46:10 10° SSE visible
17 Dec ? 17:11:13 10° ESE 17:13:18 16° ENE 17:15:24 10° NNE visible
17 Dec ? 18:42:12 10° SSW 18:45:07 33° W 18:48:03 10° NNW visible
18 Dec ? 07:25:57 10° N 07:29:08 67° WNW 07:32:18 10° SSW visible
18 Dec ? 17:55:39 10° SSE 17:58:46 56° ENE 18:01:54 10° N visible
